Cagliari, Italy

4:10 PM CEST on April 27, 2017 (GMT +0200)
Elmas Mil

Weather History for LIEE - December, 2012

Change the Weather History Date:

Monday, December 10, 2012

  Actual Average Record
Temperature  
Mean Temperature 51 °F -  
Max Temperature 60 °F 59 °F 66 °F (2004)
Min Temperature 42 °F 43 °F 37 °F (2001)
Degree Days  
Heating Degree Days 14    
Growing Degree Days 1 (Base 50)    
Moisture  
Dew Point 41 °F    
Average Humidity 68    
Maximum Humidity 87    
Minimum Humidity 44    
Precipitation  
Precipitation 0.00 in 0.07 in - ()
Sea Level Pressure  
Sea Level Pressure 29.99 in    
Wind  
Wind Speed 8 mph ()    
Max Wind Speed 21 mph    
Max Gust Speed 33 mph    
Visibility 6.4 miles    
Events      
Averages and records for this station are not official NWS values.
T = Trace of Precipitation, MM = Missing Value Source: Averaged Metar Reports

Daily Weather History Graph

Daily Weather History Graph

Search for Another Location

Airport or City:

Trip Planner

Search our weather history database for the weather conditions in past years. The results will help you decide how hot, cold, wet, or windy it might be!

Date:

Astronomy

Dec. 10, 2012 Rise Set
Actual Time 7:32 AM CET 5:00 PM CET
Civil Twilight 7:02 AM CET 5:30 PM CET
Nautical Twilight 6:29 AM CET 6:04 PM CET
Astronomical Twilight 5:56 AM CET 6:36 PM CET
Moon 3:57 AM CET (12/10) 2:37 PM CET (12/10)
Length of Visible Light 10h 28m
Length of Day
9h 28m
Waning Crescent, 12% of the Moon is Illuminated
Dec 10
Waning Crescent
Dec 13
New
Dec 20
First Quarter
Dec 28
Full
Jan 5
Last Quarter

Hourly Weather History & Observations

Time (CET) Temp. Windchill Dew Point Humidity Pressure Visibility Wind Dir Wind Speed Gust Speed Precip Events Conditions
12:15 AM 44.6 °F 40.7 °F 37.4 °F 76% 30.15 in 6.2 mi NNW 6.9 mph - N/A   Scattered Clouds
12:45 AM 48.2 °F - 39.2 °F 71% 30.12 in 6.2 mi NNW 6.9 mph - N/A   Partly Cloudy
12:55 AM 48.2 °F - 39.2 °F 71% 30.12 in 6.2 mi NNW 6.9 mph - N/A   Partly Cloudy
1:00 AM 47 °F - 40 °F 69% 30.14 in 7 mi NNW 6.9 mph - -   Scattered Clouds
1:15 AM 44.6 °F 39.2 °F 37.4 °F 76% 30.12 in 6.2 mi NNW 10.4 mph - N/A   Partly Cloudy
1:45 AM 44.6 °F 40.2 °F 37.4 °F 76% 30.12 in 6.2 mi NW 8.1 mph - N/A   Partly Cloudy
1:55 AM 44.6 °F 40.2 °F 37.4 °F 76% 30.12 in 6.2 mi NW 8.1 mph - N/A   Partly Cloudy
2:15 AM 42.8 °F 39.3 °F 35.6 °F 76% 30.12 in 6.2 mi NNW 5.8 mph - N/A   Partly Cloudy
2:45 AM 42.8 °F 37.5 °F 39.2 °F 87% 30.12 in 6.2 mi NNW 9.2 mph - N/A   Scattered Clouds
2:55 AM 42.8 °F 37.5 °F 39.2 °F 87% 30.12 in 6.2 mi NNW 9.2 mph - N/A   Scattered Clouds
3:15 AM 42.8 °F 37.0 °F 39.2 °F 87% 30.12 in 6.2 mi NNW 10.4 mph - N/A   Scattered Clouds
3:45 AM 44.6 °F 40.2 °F 39.2 °F 81% 30.09 in 6.2 mi NNW 8.1 mph - N/A   Partly Cloudy
3:55 AM 44.6 °F 40.2 °F 39.2 °F 81% 30.09 in 6.2 mi NNW 8.1 mph - N/A   Partly Cloudy
4:00 AM 45 °F - 39 °F 73% 30.10 in 7 mi NNW 8.1 mph - -   Scattered Clouds
4:15 AM 46.4 °F 41.9 °F 39.2 °F 76% 30.09 in 6.2 mi NNW 9.2 mph - N/A   Partly Cloudy
4:45 AM 46.4 °F - 39.2 °F 76% 30.06 in 6.2 mi Calm Calm - N/A   Scattered Clouds
4:55 AM 46.4 °F - 39.2 °F 76% 30.06 in 6.2 mi Calm Calm - N/A   Scattered Clouds
5:15 AM 46.4 °F - 39.2 °F 76% 30.06 in 6.2 mi Calm Calm - N/A   Scattered Clouds
5:45 AM 46.4 °F - 39.2 °F 76% 30.04 in 6.2 mi Calm Calm - N/A   Scattered Clouds
5:55 AM 46.4 °F - 39.2 °F 76% 30.04 in 6.2 mi Calm Calm - N/A   Scattered Clouds
6:15 AM 44.6 °F - 37.4 °F 76% 30.04 in 6.2 mi North 1.2 mph - N/A   Partly Cloudy
6:45 AM 44.6 °F - 37.4 °F 76% 30.04 in 6.2 mi NNE 2.3 mph - N/A   Scattered Clouds
6:55 AM 44.6 °F - 37.4 °F 76% 30.04 in 6.2 mi NNE 2.3 mph - N/A   Scattered Clouds
7:00 AM 44 °F - 38 °F 71% 30.05 in 7 mi NNE 2.3 mph - -   Partly Cloudy
7:15 AM 44.6 °F - 39.2 °F 81% 30.04 in 6.2 mi NNE 2.3 mph - N/A   Scattered Clouds
7:45 AM 46.4 °F - 41.0 °F 81% 30.04 in 6.2 mi North 2.3 mph - N/A   Scattered Clouds
7:55 AM 46.4 °F - 41.0 °F 81% 30.04 in 6.2 mi North 2.3 mph - N/A   Scattered Clouds
8:15 AM 48.2 °F - 41.0 °F 76% 30.01 in 6.2 mi NNE 6.9 mph - N/A   Scattered Clouds
8:45 AM 48.2 °F - 41.0 °F 76% 30.04 in 6.2 mi NNE 6.9 mph - N/A   Scattered Clouds
8:55 AM 48.2 °F - 41.0 °F 76% 30.04 in 6.2 mi NNE 6.9 mph - N/A   Scattered Clouds
9:15 AM 50.0 °F - 42.8 °F 76% 30.04 in 6.2 mi Calm Calm - N/A   Scattered Clouds
9:45 AM 53.6 °F - 46.4 °F 77% 30.01 in 6.2 mi WNW 8.1 mph - N/A   Scattered Clouds
9:55 AM 53.6 °F - 46.4 °F 77% 30.01 in 6.2 mi WNW 8.1 mph - N/A   Scattered Clouds
10:00 AM 54 °F - 46 °F 65% 30.04 in 7 mi WNW 8.1 mph - -   Partly Cloudy
10:15 AM 57.2 °F - 46.4 °F 67% 30.01 in 6.2 mi West 13.8 mph - N/A   Scattered Clouds
10:45 AM 57.2 °F - 44.6 °F 63% 30.01 in 6.2 mi WNW 15.0 mph - N/A   Scattered Clouds
10:55 AM 57.2 °F - 44.6 °F 63% 30.01 in 6.2 mi WNW 15.0 mph - N/A   Scattered Clouds
11:15 AM 57.2 °F - 44.6 °F 63% 29.98 in 6.2 mi WNW 15.0 mph - N/A   Scattered Clouds
11:45 AM 57.2 °F - 39.2 °F 51% 29.98 in 6.2 mi West 20.7 mph - N/A   Scattered Clouds
11:55 AM 57.2 °F - 39.2 °F 51% 29.98 in 6.2 mi West 20.7 mph - N/A   Scattered Clouds
12:15 PM 57.2 °F - 39.2 °F 51% 29.98 in 6.2 mi West 18.4 mph 29.9 mph N/A   Mostly Cloudy
12:45 PM 57.2 °F - 41.0 °F 55% 29.98 in 6.2 mi WNW 18.4 mph 33.4 mph N/A   Mostly Cloudy
12:55 PM 57.2 °F - 41.0 °F 55% 29.98 in 6.2 mi WNW 18.4 mph 33.4 mph N/A   Mostly Cloudy
1:00 PM 58 °F - 42 °F 44% 29.98 in 9 mi WNW 18.4 mph - -   Mostly Cloudy
1:15 PM 57.2 °F - 42.8 °F 59% 29.98 in 6.2 mi WNW 20.7 mph 33.4 mph N/A   Mostly Cloudy
1:45 PM 57.2 °F - 44.6 °F 63% 29.95 in 6.2 mi West 17.3 mph - N/A   Mostly Cloudy
1:55 PM 57.2 °F - 44.6 °F 63% 29.95 in 6.2 mi West 17.3 mph - N/A   Mostly Cloudy
2:15 PM 57.2 °F - 44.6 °F 63% 29.92 in 6.2 mi West 17.3 mph - N/A   Mostly Cloudy
2:45 PM 57.2 °F - 46.4 °F 67% 29.92 in 6.2 mi West 17.3 mph - N/A   Mostly Cloudy
2:55 PM 57.2 °F - 46.4 °F 67% 29.92 in 6.2 mi West 17.3 mph - N/A   Mostly Cloudy
3:15 PM 59.0 °F - 42.8 °F 55% 29.92 in 6.2 mi West 13.8 mph - N/A   Mostly Cloudy
3:45 PM 59.0 °F - 41.0 °F 51% 29.92 in 6.2 mi West 13.8 mph - N/A   Scattered Clouds
3:55 PM 59.0 °F - 41.0 °F 51% 29.92 in 6.2 mi West 13.8 mph - N/A   Scattered Clouds
4:15 PM 59.0 °F - 39.2 °F 48% 29.92 in 6.2 mi WNW 16.1 mph 27.6 mph N/A   Scattered Clouds
4:45 PM 57.2 °F - 41.0 °F 55% 29.92 in 6.2 mi WNW 10.4 mph - N/A   Scattered Clouds
4:55 PM 57.2 °F - 41.0 °F 55% 29.92 in 6.2 mi WNW 10.4 mph - N/A   Scattered Clouds
5:15 PM 55.4 °F - 39.2 °F 54% 29.92 in 6.2 mi WNW 9.2 mph - N/A   Scattered Clouds
5:45 PM 53.6 °F - 41.0 °F 62% 29.89 in 6.2 mi NW 10.4 mph - N/A   Scattered Clouds
5:55 PM 53.6 °F - 41.0 °F 62% 29.89 in 6.2 mi NW 10.4 mph - N/A   Scattered Clouds
6:15 PM 51.8 °F - 41.0 °F 67% 29.89 in 6.2 mi NW 9.2 mph - N/A   Scattered Clouds
6:45 PM 51.8 °F - 41.0 °F 67% 29.89 in 6.2 mi WNW 9.2 mph - N/A   Scattered Clouds
6:55 PM 51.8 °F - 41.0 °F 67% 29.89 in 6.2 mi WNW 9.2 mph - N/A   Scattered Clouds
7:00 PM 52 °F - 41 °F 57% 29.91 in 7 mi WNW 9.2 mph - -   Partly Cloudy
7:15 PM 51.8 °F - 41.0 °F 67% 29.89 in 6.2 mi WNW 10.4 mph - N/A   Scattered Clouds
7:45 PM 51.8 °F - 41.0 °F 67% 29.89 in 6.2 mi WNW 10.4 mph - N/A   Scattered Clouds
7:55 PM 51.8 °F - 41.0 °F 67% 29.89 in 6.2 mi WNW 10.4 mph - N/A   Scattered Clouds
8:15 PM 51.8 °F - 41.0 °F 67% 29.89 in 6.2 mi WNW 11.5 mph - N/A   Partly Cloudy
8:45 PM 51.8 °F - 41.0 °F 67% 29.89 in 6.2 mi WNW 8.1 mph - N/A   Partly Cloudy
8:55 PM 51.8 °F - 41.0 °F 67% 29.89 in 6.2 mi WNW 8.1 mph - N/A   Partly Cloudy
9:15 PM 50.0 °F - 41.0 °F 71% 29.89 in 6.2 mi WNW 9.2 mph - N/A   Scattered Clouds
9:45 PM 50.0 °F - 41.0 °F 71% 29.89 in 6.2 mi West 9.2 mph - N/A   Partly Cloudy
9:55 PM 50.0 °F - 41.0 °F 71% 29.89 in 6.2 mi West 9.2 mph - N/A   Partly Cloudy
10:00 PM 50 °F - 41 °F 61% 29.89 in 12 mi West 9.2 mph - -   Scattered Clouds
10:15 PM 50.0 °F - 41.0 °F 71% 29.89 in 6.2 mi WNW 10.4 mph - N/A   Partly Cloudy
10:45 PM 50.0 °F - 41.0 °F 71% 29.89 in 6.2 mi WNW 8.1 mph - N/A   Scattered Clouds
10:55 PM 50.0 °F - 41.0 °F 71% 29.89 in 6.2 mi WNW 8.1 mph - N/A   Scattered Clouds
11:15 PM 50.0 °F - 39.2 °F 66% 29.89 in 6.2 mi WNW 10.4 mph - N/A   Scattered Clouds
11:45 PM 51.8 °F - 41.0 °F 67% 29.89 in 6.2 mi WNW 16.1 mph - N/A   Mostly Cloudy
11:55 PM 51.8 °F - 41.0 °F 67% 29.89 in 6.2 mi WNW 16.1 mph - N/A   Mostly Cloudy